Home   Weather   Hollabrunn   Past weeks

Flag for Austria Past Weather in Hollabrunn, Lower Austria, Austria — Yesterday and Last 2 Weeks

Now
42 °F

Quite cool.


Feels Like: 42 °F
Forecast: 40 / 48 °F
Wind: 2 mph from Northwest

Location: Retz

Current Time: Apr 27, 2017 at 1:32:38 am

Latest Report: Apr 27, 2017 at 12:00 am


Visibility: N/A

Pressure: 29.89 "Hg

Humidity: 92%

Dew Point: 40 °F

Location of HollabrunnLocation

Past Weather in Hollabrunn — Graph

°F

Hollabrunn Temperature Yesterday

Maximum temperature yesterday: 49 °F (at 12:00 am)
Minimum temperature yesterday: 42 °F (at 11:00 pm)
Average temperature yesterday: 46 °F

High & Low Weather Summary for the Past Weeks

 TemperatureHumidityPressure
High64 °F (Apr 25, 6:00 pm)97% (Apr 17, 9:00 pm)30.51 "Hg (Apr 17, 9:00 pm)
Low34 °F (Apr 20, 6:00 am)37% (Apr 24, 6:00 pm)29.67 "Hg (Apr 25, 7:00 pm)
Average46 °F67%30.04 "Hg
* Reported Apr 12 12:00 am — Apr 27 12:00 am, Hollabrunn, Weather by CustomWeather, © 2017

Note: Actual official high and low records may vary slightly from our data, if they occured in-between our weather recording intervals... More about our weather records

Advertising

Hollabrunn Weather History for the Previous 24 Hours

Scroll right to see more
 ConditionsComfort  
Time TempWeatherWind HumidityBarometerVisibility
12:00 am
Thu, Apr 27
42 °FQuite cool.2 mph92%29.89 "HgN/A
11:00 pm
Wed, Apr 26
42 °FQuite cool.2 mph88%29.90 "HgN/A
10:00 pm43 °FQuite cool.3 mph89%29.89 "HgN/A
9:00 pm44 °FQuite cool.1 mph87%29.88 "HgN/A
8:00 pm44 °FOvercast.1 mph87%29.86 "Hg9 mi
7:00 pm45 °FQuite cool.No wind86%29.83 "HgN/A
6:00 pm45 °FQuite cool.7 mph87%29.81 "HgN/A
5:00 pm46 °FCool.7 mph88%29.79 "HgN/A
4:00 pm47 °FCool.6 mph86%29.78 "HgN/A
3:00 pm49 °FCool.3 mph82%29.78 "HgN/A
2:00 pm49 °FOvercast.3 mph84%29.77 "Hg11 mi
1:00 pm49 °FCool.3 mph83%29.76 "HgN/A
12:00 pm49 °FCool.2 mph83%29.76 "HgN/A
11:00 am48 °FCool.3 mph84%29.76 "HgN/A
10:00 am46 °FCool.5 mph87%29.76 "HgN/A
9:00 am45 °FQuite cool.5 mph85%29.75 "HgN/A
8:00 am45 °FOvercast.6 mph83%29.74 "Hg6 mi
7:00 am45 °FOvercast.5 mph86%29.75 "Hg5 mi
6:00 am46 °FCool.5 mph87%29.73 "HgN/A
5:00 am47 °FCool.5 mph84%29.73 "HgN/A
4:00 am48 °FCool.3 mph88%29.74 "HgN/A
3:00 am48 °FCool.1 mph91%29.74 "HgN/A
2:00 am48 °FCool.No wind93%29.75 "HgN/A
1:00 am49 °FCool.2 mph91%29.77 "HgN/A
Weather by CustomWeather, © 2017

See weather overviewHow to use our weather pages